This is the latest recevied weather packets stored in our database for station/object 9M4RLD-3. If no packets are shown the sender has not sent any weather packets the latest 1 day(s).
| Time | Temp. | Humidity | Pressure | Rain* | Wind** | Luminosity | Snow |
|---|---|---|---|---|---|---|---|
| 1778053875 | 26.11° C | 100% | 1030.3 hPa | - | - | - | - |
| 1778052675 | 26.67° C | 100% | 1030.5 hPa | - | - | - | - |
| 1778051475 | 27.78° C | 100% | 1030.9 hPa | - | - | - | - |
| 1778050275 | 27.22° C | 100% | 1031 hPa | - | - | - | - |
| 1778049075 | 27.22° C | 100% | 1031.3 hPa | - | - | - | - |
| 1778047875 | 26.11° C | 100% | 1031.9 hPa | - | - | - | - |
| 1778046676 | 26.11° C | 100% | 1032.2 hPa | - | - | - | - |
| 1778044323 | 26.67° C | 100% | 1032.8 hPa | - | - | - | - |
| 1778044276 | 26.67° C | 100% | 1032.8 hPa | - | - | - | - |
| 1778041875 | 25.56° C | 100% | 1033 hPa | - | - | - | - |
| 1778040717 | 25° C | 100% | 1033.2 hPa | - | - | - | - |
| 1778039475 | 24.44° C | 100% | 1033.3 hPa | - | - | - | - |
| 1778038275 | 23.89° C | 100% | 1033.5 hPa | - | - | - | - |
| 1778037075 | 23.89° C | 100% | 1033.4 hPa | - | - | - | - |
| 1778035912 | 24.44° C | 100% | 1033.5 hPa | - | - | - | - |
| 1778035875 | 24.44° C | 100% | 1033.5 hPa | - | - | - | - |
| 1778034675 | 24.44° C | 100% | 1033.7 hPa | - | - | - | - |
| 1778033475 | 25° C | 100% | 1033.6 hPa | - | - | - | - |
| 1778032275 | 25° C | 100% | 1033.6 hPa | - | - | - | - |
| 1778031075 | 24.44° C | 100% | 1033.4 hPa | - | - | - | - |
| 1778029875 | 23.89° C | 100% | 1033.2 hPa | - | - | - | - |
| 1778028675 | 23.89° C | 100% | 1032.9 hPa | - | - | - | - |
| 1778027475 | 23.89° C | 100% | 1032.8 hPa | - | - | - | - |
| 1778026347 | 23.33° C | 100% | 1032.6 hPa | - | - | - | - |
| 1778026275 | 23.33° C | 100% | 1032.6 hPa | - | - | - | - |
* Rain since midnight (hover to see other rain measurements)
** Current wind speed in m/s (hover to see current wind gust speed)